Location: Newark
(40.3820°N, 3.6624°W)
Time: 23:47:43
(UTC+00:00)

N. Korean satellite - Pass Details

Date: 20 November 2019
Orbit: 455 x 506 km, 97.2° (Epoch: 12 December)

Event Time Altitude Azimuth Distance (km) Brightness Sun altitude
Rises 17:51:23 0° 188° (S) 2,551 10.6 -11.0°
Reaches altitude 10° 17:53:35 10° 199° (SSW) 1,684 9.8 -11.4°
Maximum altitude 17:56:52 32° 263° (W) 879 8.7 -12.0°
Drops below altitude 10° 18:00:13 10° 328° (NNW) 1,717 9.6 -12.6°
Sets 18:02:29 0° 339° (NNW) 2,612 10.4 -13.0°
